[[{"header":{"parameterUnit":"m.s-1","parameterCategory":1,"la1":30.2991,"la2":30.254,"lo1":-89.0895,"lo2":-89.0444,"dy":0.0017,"dx":0.0017,"nx":28,"ny":28,"refTime":"2024-05-14T03:00:00:Z","depth":0,"parameterNumber":2,"parameterNumberName":"U-component_of_WINDS"},"data":[0,0,0,0,0,0,0,0,0,0,0,0,0,0,0,0,0,0,0,0,0,0,0,0,0,0,0,0,0,0,0,0,0,0,0,0,0,0,0,0,0,0,0,0,0,0,0,0,0,0,0,0,0,0,0,0,0,0,1.6014,1.6015,0,1.6085,1.6086,1.6086,1.6096,1.6096,1.6095,1.6094,1.617,1.6172,1.6175,0,0,0,0,0,0,0,0,0,0,0,0,0,1.589,1.5892,1.6014,1.6015,1.6015,1.6085,1.6086,1.6087,1.6096,1.6096,1.6095,1.6094,1.6169,1.6172,1.6175,0,0,0,0,0,0,0,0,0,0,0,0,0,1.595,1.5893,1.6014,1.6029,1.6031,1.6084,1.6086,1.6087,1.6097,1.6096,1.6095,1.6094,1.6168,1.6172,1.6176,1.622,0,0,1.6188,1.6189,0,0,0,0,0,0,0,0,1.5947,1.5955,1.6026,1.6028,1.603,1.6081,1.607,1.6132,1.6097,1.6072,1.6094,1.6093,1.6141,1.6147,1.6163,1.6224,1.6227,1.6188,1.619,1.6192,1.6193,0,0,0,0,0,0,0,1.5943,1.5952,1.6042,1.6027,1.6029,1.6033,1.604,1.6081,1.6111,1.6074,1.6075,1.6083,1.6142,1.6159,1.6165,1.6228,1.6188,1.6191,1.6194,1.6195,1.633,1.6331,0,0,0,0,0,0,1.5935,1.5948,1.604,1.6044,1.5985,1.6036,1.6044,1.6065,1.6111,1.6117,1.6084,1.6083,1.6153,1.616,1.6167,1.6223,1.6192,1.6196,1.6198,1.6329,1.633,1.6331,0,0,0,0,0,0,1.5933,1.5943,1.6037,1.5997,1.6009,1.6039,1.6063,1.6067,1.6084,1.6118,1.6124,1.6095,1.6152,1.6162,1.6207,1.6225,1.6198,1.6201,1.6327,1.6329,1.6331,1.6334,0,0,0,0,0,0,1.5929,1.5942,1.5959,1.5997,1.6011,1.6074,1.6064,1.607,1.6091,1.6091,1.613,1.6136,1.6152,1.6201,1.6211,1.623,1.6204,1.6326,1.6328,1.633,1.6332,1.6335,1.6338,0,0,0,0,0,1.5925,1.5957,1.5959,1.597,1.6032,1.6075,1.6083,1.61,1.6092,1.6109,1.6131,1.6135,1.6222,1.6205,1.6217,1.6238,1.6325,1.6327,1.633,1.6331,1.6335,1.6338,0,0,0,0,0,0,1.5921,1.5962,1.5965,1.6011,1.6039,1.6077,1.6099,1.6104,1.6136,1.6135,1.6155,1.6164,1.6209,1.6228,1.6209,1.6284,1.6273,1.6278,1.6269,1.6273,1.6276,1.6271,1.6207,0,0,0,0,0,1.5925,1.5956,1.5991,1.6028,1.6042,1.6068,1.6088,1.6098,1.6129,1.6141,1.6167,1.6197,1.6231,1.6254,1.6287,1.6335,1.6344,1.6355,1.6358,1.6361,1.6365,1.6392,1.6398,1.634,1.634,1.634,0,0,1.5935,1.5961,1.598,1.6028,1.6051,1.6084,1.6078,1.6113,1.6137,1.6147,1.6191,1.6211,1.6246,1.6293,1.6315,1.631,1.6383,1.6364,1.6366,1.6369,1.6396,1.6401,1.6406,1.6342,1.6342,1.6342,0,0,1.5969,1.5991,1.6025,1.6048,1.6084,1.6101,1.6109,1.6146,1.6159,1.6204,1.6212,1.6242,1.6301,1.6326,1.6346,1.6391,1.6395,1.6401,1.6417,1.6444,1.6448,1.6452,1.6469,1.6474,1.6405,1.6405,1.6405,0,1.5976,1.6024,1.6042,1.6076,1.6098,1.6107,1.6142,1.6165,1.6209,1.6224,1.6218,1.6292,1.6317,1.637,1.6381,1.6397,1.6408,1.6397,1.6446,1.645,1.6455,1.647,1.6476,1.6406,1.6406,1.6406,1.6406,0,1.6032,1.6066,1.6089,1.6131,1.6156,1.619,1.6213,1.6236,1.6245,1.6263,1.6309,1.6339,1.6379,1.6392,1.6402,1.6447,1.6443,1.6442,1.6431,1.646,1.6475,1.6481,1.6406,1.6406,1.6406,1.6406,0,0,1.6064,1.6117,1.6125,1.6145,1.6185,1.6212,1.6247,1.6286,1.6305,1.6336,1.6367,1.6417,1.6415,1.6439,1.6451,1.6474,1.6508,1.647,1.6471,1.6476,1.6561,1.6562,1.6569,1.6512,1.6513,1.6514,1.6558,0,1.6103,1.6165,1.6183,1.6236,1.6268,1.6279,1.631,1.6338,1.6357,1.6387,1.6408,1.6443,1.6439,1.6453,1.6476,1.6499,1.6526,1.6496,1.6541,1.6543,1.6532,1.6577,1.6578,1.6618,1.6564,1.6565,1.6566,0,1.6156,1.6187,1.6244,1.6281,1.6295,1.6322,1.636,1.6389,1.6422,1.6434,1.646,1.6471,1.6509,1.6497,1.6551,1.653,1.655,1.6564,1.6566,1.6571,1.6556,1.6583,1.6631,1.6637,1.6576,1.6575,1.6574,0,1.6174,1.6231,1.6272,1.6289,1.6333,1.6352,1.6372,1.6404,1.6426,1.6459,1.6474,1.6511,1.6532,1.6561,1.6582,1.657,1.6634,1.6623,1.6645,1.6645,1.6658,1.6657,1.671,1.6671,1.6671,1.6671,1.667,0,1.6215,1.6249,1.6281,1.6306,1.6345,1.6366,1.6404,1.6424,1.6453,1.6483,1.6495,1.6523,1.6549,1.6581,1.6598,1.664,1.6649,1.666,1.6664,1.6659,1.6658,1.6672,1.667,1.6672,1.6672,1.6671,1.6671,0,1.6241,1.6264,1.631,1.6348,1.6359,1.6386,1.6419,1.6445,1.6464,1.6502,1.6512,1.6543,1.6581,1.6605,1.6654,1.6665,1.6711,1.6715,1.67,1.6702,1.6723,1.672,1.6787,1.6797,1.6751,1.6751,1.6752,0,1.6266,1.6292,1.6334,1.6355,1.6374,1.6408,1.6431,1.6452,1.6476,1.6516,1.6537,1.6576,1.6609,1.667,1.6697,1.6734,1.6738,1.6759,1.6744,1.6738,1.6739,1.6737,1.674,1.6762,1.6762,1.6762,1.6763,0,1.6307,1.6317,1.6349,1.6386,1.6413,1.6443,1.6473,1.649,1.6516,1.6543,1.6582,1.6607,1.6657,1.6696,1.6736,1.6757,1.6765,1.6767,1.6774,1.6769,1.676,1.6765,1.6707,1.6765,1.6765,1.6765,1.6765,1.6765,1.6333,1.6357,1.6391,1.6427,1.6452,1.648,1.6506,1.6528,1.6561,1.6603,1.6614,1.6656,1.669,1.6744,1.6766,1.6799,1.6796,1.6807,1.6809,1.6812,1.6812,1.6755,1.6807,1.6807,1.6807,1.6807,1.6807,0,1.6375,1.6397,1.643,1.6472,1.65,1.6505,1.6538,1.6562,1.6598,1.6629,1.6661,1.6706,1.6744,1.6775,1.6814,1.6835,1.6839,1.6844,1.6843,1.6848,1.6812,1.6802,1.684,1.684,1.684,1.684,1.684,1.684,1.64,1.6442,1.6456,1.6511,1.6533,1.6573,1.6592,1.6618,1.6643,1.6693,1.6725,1.6744,1.6775,1.6817,1.6853,1.6861,1.6875,1.6879,1.6888,1.6854,1.685,1.6847,1.6837,1.6882,1.6882,1.6921,1.6921,1.6921]},{"header":{"parameterUnit":"m.s-1","parameterCategory":1,"la1":30.2991,"la2":30.254,"lo1":-89.0895,"lo2":-89.0444,"dy":0.0017,"dx":0.0017,"nx":28,"ny":28,"refTime":"2024-05-14T03:00:00:Z","depth":0,"parameterNumber":3,"parameterNumberName":"V-component_of_WINDS"},"data":[0,0,0,0,0,0,0,0,0,0,0,0,0,0,0,0,0,0,0,0,0,0,0,0,0,0,0,0,0,0,0,0,0,0,0,0,0,0,0,0,0,0,0,0,0,0,0,0,0,0,0,0,0,0,0,0,0,0,6.2328,6.2329,0,6.2419,6.242,6.2421,6.2424,6.2423,6.2422,6.2421,6.2504,6.2507,6.2511,0,0,0,0,0,0,0,0,0,0,0,0,0,6.2145,6.2149,6.2327,6.2329,6.233,6.2419,6.242,6.2421,6.2425,6.2423,6.2422,6.2421,6.2503,6.2507,6.2511,0,0,0,0,0,0,0,0,0,0,0,0,0,6.2229,6.215,6.2327,6.2343,6.2345,6.2418,6.242,6.2421,6.2425,6.2423,6.2422,6.242,6.2502,6.2507,6.2511,6.2573,0,0,6.2526,6.2528,0,0,0,0,0,0,0,0,6.2224,6.2236,6.2339,6.2342,6.2344,6.2409,6.2386,6.2472,6.2425,6.2394,6.2421,6.2419,6.2473,6.248,6.25,6.2577,6.258,6.2526,6.2529,6.2531,6.2533,0,0,0,0,0,0,0,6.2218,6.2232,6.2363,6.2341,6.2344,6.2341,6.2351,6.2402,6.2441,6.2397,6.2397,6.2409,6.2474,6.2496,6.2502,6.2581,6.2526,6.2531,6.2534,6.2535,6.271,6.2712,0,0,0,0,0,0,6.2211,6.2227,6.236,6.2366,6.228,6.2346,6.2357,6.2389,6.2441,6.2447,6.241,6.2408,6.2488,6.2497,6.2505,6.258,6.2531,6.2536,6.2539,6.2708,6.271,6.2712,0,0,0,0,0,0,6.2207,6.2223,6.2357,6.2297,6.2314,6.2351,6.2387,6.2392,6.2414,6.2451,6.2456,6.2426,6.2488,6.2499,6.2556,6.2582,6.2538,6.2542,6.2706,6.2709,6.2711,6.2729,0,0,0,0,0,0,6.2202,6.2222,6.2248,6.2297,6.2317,6.2409,6.2389,6.2395,6.2423,6.2422,6.2467,6.2473,6.2487,6.2549,6.2561,6.2588,6.2546,6.2704,6.2707,6.2711,6.2726,6.2732,6.2737,0,0,0,0,0,6.2196,6.2247,6.2249,6.2265,6.2351,6.2411,6.2422,6.244,6.2426,6.2451,6.2474,6.2471,6.2578,6.2555,6.2568,6.2597,6.2702,6.2707,6.271,6.2724,6.2731,6.2737,0,0,0,0,0,0,6.2196,6.2254,6.2257,6.2327,6.2365,6.2412,6.2444,6.2447,6.2487,6.2484,6.2502,6.2512,6.2568,6.2589,6.2562,6.2658,6.2638,6.2645,6.2643,6.265,6.2656,6.2649,6.255,0,0,0,0,0,6.2206,6.2253,6.2299,6.2356,6.2375,6.2406,6.2433,6.2444,6.2482,6.2497,6.2525,6.2559,6.26,6.2626,6.2666,6.2729,6.2737,6.2755,6.2761,6.2765,6.277,6.2803,6.2811,6.2725,6.2725,6.2725,0,0,6.2223,6.2261,6.2289,6.2358,6.2388,6.2433,6.242,6.2468,6.2501,6.2503,6.256,6.2581,6.262,6.2681,6.2709,6.2699,6.2796,6.277,6.2773,6.2776,6.2808,6.2816,6.2823,6.2728,6.2728,6.2727,0,0,6.2279,6.2313,6.2364,6.2395,6.2443,6.2463,6.2475,6.2522,6.2537,6.2595,6.2598,6.2635,6.2706,6.2733,6.2756,6.2822,6.282,6.2834,6.2861,6.2893,6.2899,6.2905,6.2927,6.2935,6.2839,6.2839,6.2839,0,6.2294,6.2366,6.2389,6.2438,6.2467,6.2475,6.2524,6.2552,6.2608,6.2626,6.2616,6.2705,6.2731,6.2798,6.2814,6.2833,6.2845,6.2828,6.2897,6.2904,6.2909,6.293,6.2939,6.284,6.284,6.284,6.284,0,6.2381,6.2431,6.2466,6.2524,6.2557,6.2605,6.2632,6.2662,6.267,6.269,6.2747,6.278,6.2826,6.2842,6.2849,6.2909,6.2902,6.2894,6.2874,6.2919,6.2938,6.2947,6.2842,6.2842,6.2841,6.2841,0,0,6.244,6.2511,6.2523,6.2549,6.2602,6.2638,6.2686,6.2735,6.2759,6.2796,6.2835,6.2895,6.2888,6.2914,6.2924,6.2953,6.3,6.2941,6.2942,6.295,6.3066,6.3071,6.308,6.3,6.3002,6.3003,6.3062,0,6.25,6.2591,6.2612,6.2687,6.2731,6.2739,6.278,6.2815,6.2835,6.2872,6.2892,6.2934,6.2923,6.2939,6.2967,6.2989,6.3023,6.2985,6.3033,6.3034,6.3022,6.309,6.3096,6.315,6.307,6.3071,6.3072,0,6.2583,6.2627,6.2708,6.2754,6.2773,6.2811,6.2856,6.2893,6.2931,6.2943,6.2973,6.298,6.3026,6.3004,6.3067,6.304,6.306,6.3074,6.3076,6.308,6.3055,6.3095,6.3168,6.3176,6.3085,6.3084,6.3083,0,6.2616,6.2695,6.2753,6.2775,6.2831,6.2856,6.288,6.2917,6.2944,6.2982,6.3,6.3042,6.3064,6.3095,6.3112,6.3095,6.3172,6.3152,6.3181,6.3181,6.3196,6.3195,6.3273,6.3212,6.3211,6.3211,6.3211,0,6.2681,6.273,6.2769,6.2804,6.2858,6.288,6.2932,6.2954,6.2987,6.3025,6.3032,6.3067,6.3088,6.3124,6.3137,6.3186,6.3196,6.3204,6.3207,6.3204,6.3202,6.3216,6.3213,6.3213,6.3213,6.3212,6.3212,0,6.2727,6.2755,6.2819,6.2868,6.2881,6.2918,6.2957,6.299,6.301,6.3057,6.3069,6.3099,6.3143,6.3163,6.3215,6.3224,6.3279,6.3279,6.3267,6.3268,6.3295,6.3292,6.3384,6.3397,6.3328,6.3329,6.3329,0,6.2766,6.2804,6.2857,6.2885,6.291,6.2954,6.2983,6.3005,6.3034,6.308,6.3106,6.3151,6.3187,6.3255,6.3279,6.3319,6.3319,6.3349,6.3325,6.332,6.3318,6.3316,6.3318,6.3353,6.3353,6.3354,6.3354,0,6.2832,6.2844,6.2887,6.2936,6.2971,6.3008,6.3045,6.3066,6.3094,6.3125,6.3171,6.32,6.3255,6.3297,6.3338,6.3358,6.336,6.3362,6.337,6.3367,6.3358,6.3362,6.3278,6.3359,6.3359,6.3359,6.3358,6.3358,6.2874,6.2908,6.2951,6.2999,6.3029,6.3064,6.3097,6.3123,6.3163,6.3211,6.3221,6.3269,6.3304,6.336,6.3382,6.3417,6.341,6.3423,6.3426,6.3428,6.3429,6.3353,6.3425,6.3425,6.3425,6.3425,6.3424,0,6.2939,6.2968,6.3012,6.3065,6.3101,6.3103,6.3144,6.3173,6.3217,6.3251,6.3288,6.3339,6.338,6.3409,6.345,6.3473,6.3474,6.3482,6.348,6.3484,6.3434,6.3422,6.348,6.348,6.348,6.348,6.348,6.348,6.2978,6.3035,6.3052,6.3124,6.315,6.3201,6.3224,6.3254,6.3282,6.334,6.3376,6.3395,6.3426,6.347,6.3506,6.3513,6.3527,6.3536,6.3542,6.3494,6.3488,6.3482,6.3471,6.3539,6.3539,6.3589,6.359,6.359]}]]